Estación de Algarrobo Bajo INIA

Ultimos registro cada 15 minutos 59
Estación Fecha / Hora Temperatura Humedad Lluvia Velocidad Dirección Radiación Presion
59 Algarrobo Bajo INIA 07-05-2026 14:30 21,3 37,2 0 4 203 539 0
58 Algarrobo Bajo INIA 07-05-2026 14:15 21,1 37,5 0 4,1 207 558 0
57 Algarrobo Bajo INIA 07-05-2026 14:00 21,1 41,9 0 3,8 215 575 0
56 Algarrobo Bajo INIA 07-05-2026 13:45 21,3 43,2 0 3,7 213 589 0
55 Algarrobo Bajo INIA 07-05-2026 13:30 21,3 42,1 0 3,2 212 598 0
54 Algarrobo Bajo INIA 07-05-2026 13:15 20,8 43,8 0 3,6 206 606 0
53 Algarrobo Bajo INIA 07-05-2026 13:00 20,4 43,9 0 4 212 611 0
52 Algarrobo Bajo INIA 07-05-2026 12:45 19,9 45,2 0 3,8 213 612 0
51 Algarrobo Bajo INIA 07-05-2026 12:30 19,6 47,5 0 3,6 215 608 0
50 Algarrobo Bajo INIA 07-05-2026 12:15 19,4 47,4 0 3,6 201 600 0
49 Algarrobo Bajo INIA 07-05-2026 12:00 19,2 49,7 0 4 208 590 0
48 Algarrobo Bajo INIA 07-05-2026 11:45 19,6 46,2 0 3,1 200 576 0
47 Algarrobo Bajo INIA 07-05-2026 11:30 19,3 46,5 0 2,9 196 557 0
46 Algarrobo Bajo INIA 07-05-2026 11:15 18,7 47,6 0 2,8 190 535 0
45 Algarrobo Bajo INIA 07-05-2026 11:00 18,3 51,8 0 2,8 173 508 0
44 Algarrobo Bajo INIA 07-05-2026 10:45 17,9 51,1 0 2,8 176 480 0
43 Algarrobo Bajo INIA 07-05-2026 10:30 17,2 53,2 0 2,7 187 449 0
42 Algarrobo Bajo INIA 07-05-2026 10:15 17 54,4 0 2,3 172 416 0
41 Algarrobo Bajo INIA 07-05-2026 10:00 16,3 57 0 2 183 380 0
40 Algarrobo Bajo INIA 07-05-2026 09:45 15,6 59,8 0 0,8 189 340 0
39 Algarrobo Bajo INIA 07-05-2026 09:30 14,4 63,6 0 0,9 197 287 0
38 Algarrobo Bajo INIA 07-05-2026 09:15 13,7 68 0 1,4 217 225 0
37 Algarrobo Bajo INIA 07-05-2026 09:00 13,5 69,8 0 1,3 218 194 0
36 Algarrobo Bajo INIA 07-05-2026 08:45 12,8 70,8 0 1,1 216 177 0
35 Algarrobo Bajo INIA 07-05-2026 08:30 12,3 72,2 0 0,4 231 136 0
34 Algarrobo Bajo INIA 07-05-2026 08:15 11,7 74,4 0 0 243 84 0
33 Algarrobo Bajo INIA 07-05-2026 08:00 10,7 77,3 0 0,1 312 44 0
32 Algarrobo Bajo INIA 07-05-2026 07:45 10,5 79,2 0 0,8 241 12 0
31 Algarrobo Bajo INIA 07-05-2026 07:30 11,2 76,8 0 0,7 218 4 0
30 Algarrobo Bajo INIA 07-05-2026 07:15 12 74,5 0 1 210 1 0
29 Algarrobo Bajo INIA 07-05-2026 07:00 12,1 73,8 0 1,1 219 0 0
28 Algarrobo Bajo INIA 07-05-2026 06:45 12 74,8 0 1 229 0 0
27 Algarrobo Bajo INIA 07-05-2026 06:30 11,7 76,5 0 0,8 238 0 0
26 Algarrobo Bajo INIA 07-05-2026 06:15 11,4 78,3 0 0,5 248 0 0
25 Algarrobo Bajo INIA 07-05-2026 06:00 10,8 80,2 0 0,4 253 0 0
24 Algarrobo Bajo INIA 07-05-2026 05:45 10,7 80,3 0 0 246 0 0
23 Algarrobo Bajo INIA 07-05-2026 05:30 11,2 79,1 0 0,4 241 0 0
22 Algarrobo Bajo INIA 07-05-2026 05:15 11,7 77,9 0 0,6 221 0 0
21 Algarrobo Bajo INIA 07-05-2026 05:00 11,9 77,6 0 1,6 216 0 0
20 Algarrobo Bajo INIA 07-05-2026 04:45 11,9 78,5 0 1,2 226 0 0
19 Algarrobo Bajo INIA 07-05-2026 04:30 12,2 78,4 0 1,6 225 0 0
18 Algarrobo Bajo INIA 07-05-2026 04:15 12,7 79,2 0 2,3 212 0 0
17 Algarrobo Bajo INIA 07-05-2026 04:00 13 79,8 0 2,3 224 0 0
16 Algarrobo Bajo INIA 07-05-2026 03:45 13 80,1 0 2,1 225 0 0
15 Algarrobo Bajo INIA 07-05-2026 03:30 13 79,9 0 2,2 231 0 0
14 Algarrobo Bajo INIA 07-05-2026 03:15 13 77,5 0 2,2 228 0 0
13 Algarrobo Bajo INIA 07-05-2026 03:00 13 74,3 0 1,6 242 0 0
12 Algarrobo Bajo INIA 07-05-2026 02:45 13,2 76,3 0 1,6 240 0 0
11 Algarrobo Bajo INIA 07-05-2026 02:30 13,6 75,4 0 2 226 0 0
10 Algarrobo Bajo INIA 07-05-2026 02:15 13,6 76,1 0 2,2 228 0 0
9 Algarrobo Bajo INIA 07-05-2026 02:00 13,3 77,9 0 1,6 233 0 0
8 Algarrobo Bajo INIA 07-05-2026 01:45 13,3 81 0 1,5 229 0 0
7 Algarrobo Bajo INIA 07-05-2026 01:30 13,4 82,2 0 1 256 0 0
6 Algarrobo Bajo INIA 07-05-2026 01:15 13,7 82,8 0 1,5 229 0 0
5 Algarrobo Bajo INIA 07-05-2026 01:00 13,6 85,2 0 1,5 233 0 0
4 Algarrobo Bajo INIA 07-05-2026 00:45 14 87,3 0 0,6 246 0 0
3 Algarrobo Bajo INIA 07-05-2026 00:30 14,4 87,5 0 0,5 247 0 0
2 Algarrobo Bajo INIA 07-05-2026 00:15 14,6 87,7 0 0,8 234 0 0
1 Algarrobo Bajo INIA 07-05-2026 00:00 14,6 88,6 0 1,8 224 0 0